Voltar ao catálogo

STARLINK-31714

AtivoComunicaçõesVLEO
NORAD 59387·PAYLOAD·🇺🇸 United States

Lançado Apr 2, 2024 de Vandenberg Space Force Base

Loading…

Próximas Passagens (próximas 24 horas)

TLE

AtualizadoSource: CelesTrak SupGP

Época: Sep 14, 2026, 21:19 UTC

1 59387C 24062P   26257.88868056 -.00023671  00000+0 -69959-3 0  2575
2 59387  53.1581  93.6160 0001240  84.1468 299.4945 15.34391989    15

Acompanhe STARLINK-31714 em tempo real com AllMySat

Download on the App Store